Torna al catalogo

STARLINK-3823

AttivoComunicazioniVLEO
NORAD 52336·PAYLOAD·🇺🇸 United States

Lanciato Apr 29, 2022 da Cape Canaveral Space Force Station

Loading…

Prossimi Passaggi (prossime 24 ore)

TLE

AggiornatoSource: CelesTrak SupGP

Epoca: Sep 15, 2026, 01:47 UTC

1 52336C 22045F   26258.07479167 -.00023834  00000+0 -72339-3 0  2582
2 52336  53.1597  63.3719 0001204  81.9947 358.2835 15.33552980    11

Traccia STARLINK-3823 in tempo reale con AllMySat

Download on the App Store